EW5833 Weather Reports


Display with metric or nautical units.
time (UTC)temp
F
wind
direction
speed
MPH
gust
MPH
rain 1hr
in
rain 24hr
in
rain mn
in
humidity
%
barometer
mb
20260903185850 71 169 3.0 7.0 0.00 0.17 0.17 96 1014.1
20260903185325 71 0 0.0 1.0 0.00 0.17 0.17 96 1013.9
20260903185122 71 299 1.0 5.0 0.00 0.17 0.17 96 1014.4
20260903184028 71 0 0.0 1.0 0.00 0.17 0.17 96 1013.3
20260903183851 72 0 0.0 1.0 0.00 0.17 0.17 96 1013.1
20260903183028 72 0 0.0 2.0 0.00 0.17 0.17 95 1013.8
20260903182850 72 0 0.0 2.0 0.00 0.17 0.17 95 1013.7
20260903182030 72 0 0.0 1.0 0.00 0.17 0.17 94 1013.6
20260903181850 72 0 0.0 1.0 0.00 0.17 0.17 94 1013.8
20260903181030 72 0 0.0 2.0 0.00 0.17 0.17 93 1013.6
20260903180851 72 0 0.0 2.0 0.00 0.17 0.17 93 1013.6
20260903180030 73 137 0.0 3.0 0.00 0.17 0.17 92 1013.6
20260903175846 73 107 0.0 3.0 0.00 0.17 0.17 92 1013.6
20260903175028 73 0 1.0 4.0 0.00 0.17 0.17 93 1013.6
20260903174845 72 0 1.0 4.0 0.00 0.17 0.17 93 1013.6
20260903174030 72 311 0.0 3.0 0.00 0.17 0.17 92 1013.7
20260903173846 72 0 0.0 3.0 0.00 0.17 0.17 92 1013.7
20260903173029 72 343 1.0 5.0 0.06 0.17 0.17 92 1013.8
20260903172845 72 0 1.0 5.0 0.06 0.17 0.17 92 1013.8
20260903172511 71 51 1.0 5.0 0.06 0.17 0.17 92 1014.0
20260903171846 71 0 1.0 5.0 0.06 0.17 0.17 92 1014.0
20260903171028 70 67 1.0 4.0 0.06 0.17 0.17 93 1013.9
20260903170842 70 325 1.0 4.0 0.06 0.17 0.17 92 1013.9
20260903170029 69 0 0.0 3.0 0.07 0.17 0.17 95 1014.0
20260903165844 69 0 1.0 3.0 0.07 0.17 0.17 95 1014.0
20260903165555 68 304 1.0 4.0 0.07 0.17 0.17 96 1013.9
20260903165417 68 0 1.0 4.0 0.07 0.17 0.17 96 1013.7
20260903164321 67 195 1.0 5.0 0.07 0.17 0.17 95 1014.1
20260903164111 67 0 1.0 5.0 0.07 0.17 0.17 96 1014.1
20260903163024 67 231 0.0 2.0 0.05 0.11 0.11 96 1014.9
20260903162839 67 0 0.0 2.0 0.05 0.11 0.11 96 1015.0
20260903162019 67 0 0.0 2.0 0.10 0.11 0.11 95 1014.6
20260903161838 67 0 0.0 2.0 0.11 0.11 0.11 95 1014.4
20260903161016 67 0 1.0 3.0 0.11 0.11 0.11 95 1014.6
20260903160836 67 121 2.0 6.0 0.11 0.11 0.11 94 1014.6
20260903160331 67 310 1.0 5.0 0.10 0.10 0.09 91 1015.9
20260903160106 67 251 2.0 6.0 0.10 0.10 0.10 90 1015.9
20260903155017 68 190 2.0 7.0 0.09 0.09 0.09 91 1015.8
20260903154836 68 268 2.0 7.0 0.09 0.09 0.09 92 1015.9
20260903154313 72 215 3.0 14.0 0.09 0.09 0.09 91 1016.5
20260903154106 71 170 4.0 14.0 0.09 0.09 0.09 91 1016.2
20260903153017 76 160 1.0 7.0 0.07 0.07 0.06 91 1016.9
20260903152833 76 304 1.0 5.0 0.06 0.06 0.06 90 1016.8
20260903152016 77 259 0.0 3.0 0.00 0.00 0.00 84 1015.8
20260903151831 77 226 0.0 3.0 0.00 0.00 0.00 84 1015.6
20260903151014 79 0 0.0 2.0 0.00 0.00 0.00 83 1015.0
20260903150830 80 0 0.0 0.0 0.00 0.00 0.00 82 1015.0
20260903150015 80 0 0.0 1.0 0.00 0.00 0.00 80 1014.5
20260903145829 80 0 0.0 1.0 0.00 0.00 0.00 80 1014.5
20260903145016 81 0 0.0 0.0 0.00 0.00 0.00 76 1014.3
20260903144830 81 0 0.0 0.0 0.00 0.00 0.00 77 1014.3
20260903144016 83 0 0.0 3.0 0.00 0.00 0.00 73 1014.2
20260903143829 83 0 0.0 3.0 0.00 0.00 0.00 72 1014.2
20260903143013 84 152 1.0 3.0 0.00 0.00 0.00 71 1014.3
20260903142828 84 0 1.0 3.0 0.00 0.00 0.00 71 1014.3
20260903142010 83 0 0.0 3.0 0.00 0.00 0.00 73 1014.3
20260903141829 83 0 0.0 3.0 0.00 0.00 0.00 74 1014.3
20260903141312 82 0 0.0 4.0 0.00 0.00 0.00 72 1014.3
20260903141104 82 0 0.0 2.0 0.00 0.00 0.00 72 1014.2
20260903140011 81 137 1.0 4.0 0.00 0.00 0.00 75 1014.1
20260903135829 81 108 1.0 4.0 0.00 0.00 0.00 77 1014.1
20260903135008 80 136 2.0 4.0 0.00 0.00 0.00 77 1014.3
20260903134829 80 131 2.0 4.0 0.00 0.00 0.00 77 1014.3
20260903134008 80 284 0.0 3.0 0.00 0.00 0.00 78 1014.5
20260903133829 80 279 0.0 3.0 0.00 0.00 0.00 78 1014.4
20260903133009 79 0 0.0 2.0 0.00 0.00 0.00 82 1014.4
20260903132822 79 0 0.0 2.0 0.00 0.00 0.00 82 1014.4
20260903132005 78 0 0.0 1.0 0.00 0.00 0.00 83 1014.4
20260903131821 78 0 0.0 1.0 0.00 0.00 0.00 82 1014.4
20260903131004 77 0 1.0 4.0 0.00 0.00 0.00 85 1014.5
20260903130819 76 0 1.0 4.0 0.00 0.00 0.00 85 1014.5
20260903130004 75 297 0.0 2.0 0.00 0.00 0.00 86 1014.4
20260903125820 75 0 0.0 2.0 0.00 0.00 0.00 87 1014.4
20260903125258 74 0 0.0 0.0 0.00 0.00 0.00 90 1014.5
20260903125048 74 341 0.0 2.0 0.00 0.00 0.00 89 1014.5
20260903124005 73 0 0.0 2.0 0.00 0.00 0.00 90 1014.6
20260903123821 73 304 0.0 2.0 0.00 0.00 0.00 91 1014.7
20260903123005 72 0 0.0 2.0 0.00 0.00 0.00 93 1014.8
20260903122826 72 0 0.0 0.0 0.00 0.00 0.00 93 1014.8
20260903122006 72 0 0.0 0.0 0.00 0.00 0.00 93 1014.8
20260903121808 72 0 0.0 0.0 0.00 0.00 0.00 93 1014.8
20260903121003 71 0 0.0 2.0 0.00 0.00 0.00 92 1014.7
20260903120807 71 0 0.0 2.0 0.00 0.00 0.00 92 1014.7
20260903120002 71 288 0.0 2.0 0.00 0.00 0.00 94 1014.6
20260903115934 70 0 0.0 0.0 0.00 0.00 0.00 95 1014.6
20260903115807 70 272 0.0 2.0 0.00 0.00 0.00 95 1014.6
20260903114807 70 0 0.0 0.0 0.00 0.00 0.00 95 1014.6
20260903114245 69 0 0.0 0.0 0.00 0.00 0.00 95 1014.6
20260903114032 69 0 0.0 0.0 0.00 0.00 0.00 95 1014.6
20260903113002 70 0 0.0 0.0 0.00 0.00 0.00 94 1014.5
20260903112804 70 0 0.0 0.0 0.00 0.00 0.00 94 1014.5
20260903112004 70 0 0.0 0.0 0.00 0.00 0.00 94 1014.3
20260903111803 70 0 0.0 0.0 0.00 0.00 0.00 93 1014.3
20260903111003 70 0 0.0 0.0 0.00 0.00 0.00 94 1014.2
20260903110803 70 0 0.0 0.0 0.00 0.00 0.00 94 1014.2
20260903110004 70 0 0.0 0.0 0.00 0.00 0.00 93 1014.2
20260903105803 70 0 0.0 0.0 0.00 0.00 0.00 94 1014.2
20260903105003 70 0 0.0 0.0 0.00 0.00 0.00 93 1014.1
20260903104803 70 0 0.0 0.0 0.00 0.00 0.00 93 1014.1
20260903104241 70 0 0.0 0.0 0.00 0.00 0.00 93 1014.0
20260903104030 70 0 0.0 0.0 0.00 0.00 0.00 93 1014.0
20260903103007 70 0 0.0 0.0 0.00 0.00 0.00 93 1013.9
20260903102802 70 0 0.0 0.0 0.00 0.00 0.00 93 1013.9
20260903102002 70 0 0.0 0.0 0.00 0.00 0.00 92 1013.9
20260903101802 70 0 0.0 2.0 0.00 0.00 0.00 92 1013.8
20260903101510 70 0 0.0 2.0 0.00 0.00 0.00 92 1013.9
20260903101304 70 267 0.0 2.0 0.00 0.00 0.00 92 1014.0
20260903100002 71 0 0.0 0.0 0.00 0.00 0.00 92 1013.9
20260903095802 71 0 0.0 0.0 0.00 0.00 0.00 92 1013.9
20260903095002 71 0 0.0 2.0 0.00 0.00 0.00 91 1013.9
20260903094802 71 0 0.0 2.0 0.00 0.00 0.00 91 1013.9
20260903094002 71 300 1.0 2.0 0.00 0.00 0.00 91 1013.9
20260903093802 71 320 0.0 3.0 0.00 0.00 0.00 91 1013.9
20260903093002 71 0 0.0 3.0 0.00 0.00 0.00 91 1013.8
20260903092802 70 294 0.0 3.0 0.00 0.00 0.00 93 1013.7
20260903092243 71 0 0.0 0.0 0.00 0.00 0.00 93 1013.6
20260903092032 70 0 0.0 0.0 0.00 0.00 0.00 93 1013.7
20260903091003 71 0 0.0 0.0 0.00 0.00 0.00 93 1013.5
20260903090804 71 0 0.0 0.0 0.00 0.00 0.00 93 1013.6
20260903090244 71 0 0.0 1.0 0.00 0.00 0.00 93 1013.5
20260903090032 71 0 0.0 1.0 0.00 0.00 0.00 93 1013.5
20260903085004 71 0 0.0 0.0 0.00 0.00 0.00 92 1013.5
20260903084802 71 0 0.0 0.0 0.00 0.00 0.00 92 1013.5
20260903084004 71 0 0.0 0.0 0.00 0.00 0.00 91 1013.4
20260903083803 71 0 0.0 2.0 0.00 0.00 0.00 91 1013.4
20260903083003 71 303 0.0 2.0 0.00 0.00 0.00 91 1013.3
20260903082803 72 0 0.0 0.0 0.00 0.00 0.00 91 1013.3
20260903082439 72 0 0.0 0.0 0.00 0.00 0.00 90 1013.3
20260903081803 72 0 0.0 0.0 0.00 0.00 0.00 89 1013.3
20260903081003 72 0 0.0 2.0 0.00 0.00 0.00 89 1013.3
20260903080803 72 0 0.0 2.0 0.00 0.00 0.00 89 1013.3
20260903080234 72 0 0.0 2.0 0.00 0.00 0.00 89 1013.3
20260903080031 72 0 0.0 2.0 0.00 0.00 0.00 89 1013.3
20260903075447 72 0 0.0 2.0 0.00 0.00 0.00 90 1013.3
20260903074803 72 320 0.0 2.0 0.00 0.00 0.00 90 1013.3
20260903074003 72 0 0.0 1.0 0.00 0.00 0.00 91 1013.3
20260903073803 72 0 0.0 0.0 0.00 0.00 0.00 92 1013.3
20260903073006 71 0 0.0 2.0 0.00 0.00 0.00 92 1013.4
20260903072803 71 0 0.0 2.0 0.00 0.00 0.00 92 1013.4
20260903072005 71 0 0.0 1.0 0.00 0.00 0.00 93 1013.5
20260903071802 71 104 0.0 1.0 0.00 0.00 0.00 93 1013.4
20260903071440 71 0 0.0 1.0 0.00 0.00 0.00 96 1013.5
20260903070803 71 0 0.0 1.0 0.00 0.00 0.00 96 1013.5
20260903070237 70 0 0.0 2.0 0.00 0.00 0.00 96 1013.4
20260903070035 70 0 0.0 2.0 0.00 0.00 0.00 96 1013.4
20260903065243 70 0 0.0 0.0 0.00 0.00 0.00 97 1013.3
20260903065025 70 152 0.0 2.0 0.00 0.00 0.00 97 1013.4
20260903064000 70 0 0.0 0.0 0.00 0.00 0.00 97 1013.0
20260903063758 70 0 0.0 0.0 0.00 0.00 0.00 97 1013.0
20260903063001 70 0 0.0 0.0 0.00 0.00 0.00 97 1013.4
20260903062758 70 0 0.0 0.0 0.00 0.00 0.00 97 1013.5
20260903062001 70 0 0.0 0.0 0.00 0.00 0.00 97 1013.5
20260903061759 70 0 0.0 0.0 0.00 0.00 0.00 97 1013.5
20260903061001 70 0 0.0 0.0 0.00 0.00 0.00 97 1013.4
20260903060754 70 0 0.0 0.0 0.00 0.00 0.00 97 1013.4
20260903060000 70 0 0.0 0.0 0.00 0.00 0.00 96 1013.6
20260903055752 70 0 0.0 0.0 0.00 0.00 0.00 96 1013.6
20260903055003 70 0 0.0 0.0 0.00 0.00 0.00 96 1013.5
20260903054753 70 0 0.0 0.0 0.00 0.00 0.00 96 1013.5
20260903054446 71 0 0.0 1.0 0.00 0.00 0.00 96 1013.5
20260903053752 71 0 0.0 1.0 0.00 0.00 0.00 96 1013.5
20260903053000 71 0 0.0 0.0 0.00 0.00 0.00 95 1013.6
20260903052753 71 0 0.0 0.0 0.00 0.00 0.00 95 1013.6
20260903052000 71 0 0.0 0.0 0.00 0.00 0.00 95 1013.7
20260903051755 71 0 0.0 0.0 0.00 0.00 0.00 94 1013.7
20260903051002 72 0 0.0 1.0 0.00 0.00 0.00 94 1013.6
20260903050752 72 0 0.0 1.0 0.00 0.00 0.00 94 1013.6
20260903050001 72 0 0.0 0.0 0.00 0.00 0.00 94 1013.7
20260903045750 72 0 0.0 0.0 0.00 0.00 0.00 94 1013.7
20260903045001 72 0 0.0 1.0 0.00 0.00 0.00 93 1013.8
20260903044750 72 0 0.0 3.0 0.00 0.00 0.00 93 1013.8
20260903044439 72 0 0.0 3.0 0.00 0.00 0.00 94 1013.7
20260903043750 72 0 0.0 3.0 0.00 0.00 0.00 93 1013.7
20260903043440 72 0 1.0 4.0 0.00 0.00 0.00 94 1013.6
20260903042750 72 0 1.0 4.0 0.00 0.00 0.00 94 1013.6
20260903042001 73 0 0.0 0.0 0.00 0.00 0.00 93 1013.4
20260903041750 73 0 0.0 0.0 0.00 0.00 0.00 93 1013.4
20260903041000 73 0 0.0 0.0 0.00 0.00 0.00 93 1013.4
20260903040747 73 0 0.0 0.0 0.00 0.00 0.00 93 1013.4
20260903040001 73 0 0.0 3.0 0.00 0.00 0.00 92 1013.4
20260903035747 73 0 0.0 3.0 0.00 0.00 0.00 92 1013.4
20260903035001 73 151 0.0 3.0 0.00 0.00 0.00 92 1013.6
20260903034747 73 0 0.0 2.0 0.00 0.00 0.00 92 1013.6
20260903034001 73 0 0.0 3.0 0.00 0.00 0.00 91 1013.7
20260903033749 73 0 0.0 3.0 0.00 0.00 0.00 91 1013.7
20260903033234 73 153 2.0 7.0 0.00 0.00 0.00 91 1013.3
20260903033025 73 0 1.0 6.0 0.00 0.00 0.00 91 1013.3
20260903032002 73 160 2.0 7.0 0.00 0.00 0.00 93 1013.7
20260903031747 73 148 1.0 3.0 0.00 0.00 0.00 93 1013.5
20260903031001 72 0 0.0 2.0 0.00 0.00 0.00 94 1012.7
20260903030747 72 0 0.0 2.0 0.00 0.00 0.00 94 1012.5
20260903030226 73 0 0.0 0.0 0.00 0.00 0.00 94 1012.6
20260903030025 72 0 0.0 1.0 0.00 0.00 0.00 94 1012.6
20260903025001 73 0 0.0 0.0 0.00 0.00 0.00 94 1012.1
20260903024747 73 0 0.0 0.0 0.00 0.00 0.00 94 1012.2
20260903024001 73 0 0.0 0.0 0.00 0.00 0.00 93 1012.4
20260903023746 73 0 0.0 0.0 0.00 0.00 0.00 93 1012.4
20260903023002 74 0 0.0 0.0 0.00 0.00 0.00 91 1012.3
20260903022744 74 0 0.0 0.0 0.00 0.00 0.00 91 1012.3
20260903022436 74 0 0.0 0.0 0.00 0.00 0.00 90 1012.7
20260903021745 74 0 0.0 0.0 0.00 0.00 0.00 90 1012.9
20260903021002 75 0 0.0 0.0 0.00 0.00 0.00 88 1013.3
20260903020745 75 0 0.0 0.0 0.00 0.00 0.00 87 1013.4
20260903020445 76 0 0.0 0.0 0.00 0.00 0.00 85 1013.5
20260903015744 76 0 0.0 0.0 0.00 0.00 0.00 85 1013.4
20260903015002 76 0 0.0 0.0 0.00 0.00 0.00 84 1013.6
20260903014745 76 0 0.0 0.0 0.00 0.00 0.00 83 1013.5
20260903014457 76 0 0.0 2.0 0.00 0.00 0.00 83 1013.5
20260903013742 76 0 0.0 2.0 0.00 0.00 0.00 83 1013.4
20260903013002 76 0 1.0 4.0 0.00 0.00 0.00 82 1013.3
20260903012743 76 0 1.0 4.0 0.00 0.00 0.00 82 1013.4
20260903012708 77 0 1.0 4.0 0.00 0.00 0.00 84 1013.4
20260903012022 77 0 1.0 4.0 0.00 0.00 0.00 83 1013.4
20260903011001 78 305 1.0 4.0 0.00 0.00 0.00 83 1013.3
20260903010741 78 0 1.0 4.0 0.00 0.00 0.00 83 1013.1
20260903010003 79 0 0.0 3.0 0.00 0.00 0.00 82 1012.8
20260903005739 79 337 0.0 3.0 0.00 0.00 0.00 82 1012.8
20260903005001 79 0 1.0 3.0 0.00 0.00 0.00 81 1012.7
20260903004741 80 65 1.0 3.0 0.00 0.00 0.00 81 1012.7
20260903004002 80 70 1.0 5.0 0.00 0.00 0.00 76 1012.6
20260903003737 79 317 1.0 5.0 0.00 0.00 0.00 77 1012.5
20260903003002 78 227 0.0 5.0 0.00 0.00 0.00 87 1012.3
20260903002737 78 0 0.0 0.0 0.00 0.00 0.00 87 1012.3
20260903002438 79 0 0.0 0.0 0.00 0.00 0.00 86 1012.1
20260903001737 79 0 0.0 0.0 0.00 0.00 0.00 86 1012.1
20260903001217 79 0 0.0 0.0 0.00 0.00 0.00 84 1012.1
20260903001019 79 0 0.0 0.0 0.00 0.00 0.00 84 1012.0
20260903000004 80 0 0.0 2.0 0.00 0.00 0.00 82 1012.1
20260902235738 80 0 0.0 2.0 0.00 0.00 0.00 83 1012.2
20260902235001 80 302 0.0 2.0 0.00 0.00 0.00 82 1012.3
20260902234735 81 0 0.0 0.0 0.00 0.00 0.00 80 1012.4
20260902234212 81 0 0.0 0.0 0.00 0.00 0.00 78 1012.4
20260902234017 81 0 0.0 0.0 0.00 0.00 0.00 79 1012.4
20260902233214 82 0 0.0 2.0 0.00 0.00 0.00 74 1012.4
20260902233021 82 0 0.0 0.0 0.00 0.00 0.00 75 1012.4
20260902232002 83 0 1.0 4.0 0.00 0.00 0.00 73 1012.4
20260902231733 83 0 1.0 4.0 0.00 0.00 0.00 71 1012.5
20260902231002 85 53 1.0 5.0 0.00 0.00 0.00 69 1012.7
20260902230732 86 328 1.0 5.0 0.00 0.00 0.00 68 1012.7
20260902230442 87 0 1.0 4.0 0.00 0.00 0.00 65 1012.7
20260902225734 87 0 1.0 4.0 0.00 0.00 0.00 65 1012.7
20260902225001 87 0 1.0 8.0 0.00 0.00 0.00 65 1012.6
20260902224730 88 0 1.0 8.0 0.00 0.00 0.00 63 1012.6
20260902224434 88 0 0.0 2.0 0.00 0.00 0.00 64 1012.4
20260902223729 88 0 0.0 2.0 0.00 0.00 0.00 64 1012.3
20260902223001 88 0 0.0 1.0 0.00 0.00 0.00 64 1012.1
20260902222730 88 0 0.0 1.0 0.00 0.00 0.00 64 1011.9
20260902222440 88 0 0.0 3.0 0.00 0.00 0.00 63 1011.9
20260902221729 88 0 0.0 3.0 0.00 0.00 0.00 61 1012.0
20260902221002 88 0 0.0 3.0 0.00 0.00 0.00 62 1012.1
20260902220730 88 0 0.0 2.0 0.00 0.00 0.00 64 1012.0
20260902220216 89 286 1.0 3.0 0.00 0.00 0.00 59 1012.0
20260902220018 88 139 0.0 3.0 0.00 0.00 0.00 62 1012.0
20260902215005 89 217 1.0 4.0 0.00 0.00 0.00 57 1012.0
20260902214729 88 0 1.0 4.0 0.00 0.00 0.00 58 1011.9
20260902214438 89 0 1.0 4.0 0.00 0.00 0.00 60 1011.9
20260902213729 89 150 1.0 7.0 0.00 0.00 0.00 61 1011.9
20260902213004 89 119 1.0 7.0 0.00 0.00 0.00 58 1011.9
20260902212731 89 0 0.0 2.0 0.00 0.00 0.00 60 1011.9
20260902212212 90 0 1.0 3.0 0.00 0.00 0.00 58 1012.1
20260902212017 89 131 0.0 3.0 0.00 0.00 0.00 59 1012.1
20260902211001 90 0 1.0 5.0 0.00 0.00 0.00 57 1012.2
20260902210730 90 217 1.0 8.0 0.00 0.00 0.00 54 1012.1
20260902210003 90 242 2.0 8.0 0.00 0.00 0.00 54 1012.1
20260902205729 91 209 2.0 7.0 0.00 0.00 0.00 58 1012.2
20260902205448 91 0 1.0 4.0 0.00 0.00 0.00 55 1012.2
20260902204728 91 242 1.0 5.0 0.00 0.00 0.00 54 1012.3
20260902204004 91 214 1.0 5.0 0.00 0.00 0.00 53 1012.3
20260902203729 91 146 1.0 5.0 0.00 0.00 0.00 55 1012.3
20260902203215 92 0 1.0 3.0 0.00 0.00 0.00 55 1012.4
20260902203017 92 253 1.0 3.0 0.00 0.00 0.00 55 1012.3
20260902202002 92 131 2.0 7.0 0.00 0.00 0.00 52 1012.4
20260902201729 93 284 2.0 7.0 0.00 0.00 0.00 52 1012.5
20260902201001 93 116 1.0 5.0 0.00 0.00 0.00 51 1012.5
20260902200731 94 0 1.0 5.0 0.00 0.00 0.00 53 1012.6
20260902200002 93 0 1.0 5.0 0.00 0.00 0.00 54 1012.8
20260902195730 93 0 1.0 8.0 0.00 0.00 0.00 50 1012.7
20260902195001 93 244 2.0 8.0 0.00 0.00 0.00 52 1012.7
20260902194728 93 233 2.0 8.0 0.00 0.00 0.00 51 1012.8
20260902194001 93 18 2.0 7.0 0.00 0.00 0.00 50 1012.9
20260902193729 93 250 2.0 7.0 0.00 0.00 0.00 51 1013.0
20260902193000 93 78 2.0 10.0 0.00 0.00 0.00 49 1013.1
20260902192731 93 84 2.0 10.0 0.00 0.00 0.00 50 1013.1
20260902192440 93 0 2.0 7.0 0.00 0.00 0.00 53 1013.3
20260902191730 93 222 2.0 7.0 0.00 0.00 0.00 54 1013.1
20260902191001 93 314 2.0 7.0 0.00 0.00 0.00 52 1013.3
20260902190734 93 325 2.0 7.0 0.00 0.00 0.00 56 1013.3